User: anonymous
Location: Drayton Valley
(53.2170°N, 114.9830°W)
Time: 01:51:57
(UTC-06:00)
Language:

Cosmos 1302 Rocket - Orbit

View from above orbital plane
View from above orbital plane
View from above satellite
View from above satellite

Ground track
Ground track

The orbit data is extracted from the following two-line orbital elements,

1 12792U 81084B   14112.84992896  .00000302  00000-0  11032-3 0  4929
2 12792 074.0312 354.3501 0014044 202.8054 228.2597 14.37077318709647
Epoch (UTC): 22 April 2014 20:23:53
Eccentricity: 0.0014044
inclination: 74.0312°
perigee height: 758 km
apogee height: 778 km
right ascension of ascending node: 354.3501°
argument of perigee: 202.8054°
revolutions per day: 14.37077318
mean anomaly at epoch: 228.2597°
orbit number at epoch: 70964

The dashed part of the orbit path shows where the satellite is in the earth's shadow,  

DLR